User: anonymous   Login
Location: Bühlhof
(48.7849°N, 8.6361°E)
Time: 09:01:36
(UTC+00:00)
Language:

ATLAS 5 CENTAUR R/B - Orbit

View from above orbital plane
View from above orbital plane
View from above satellite
View from above satellite

Ground track
Ground track

The orbit is defined by the following mean orbital elements,

1 31702U          26072.23927809 +.00000000 +00000-0 +66711-3 0 00007
2 31702  63.3109 167.8403 0499988  42.2916 321.5602 14.51678034    05
Epoch (UTC): 13 March 2026 05:44:33
Eccentricity: 0.0499988
inclination: 63.3109°
perigee height: 365 km
apogee height: 1075 km
right ascension of ascending node: 167.8403°
argument of perigee: 42.2916°
revolutions per day: 14.51678034
mean anomaly at epoch: 321.5602°

The dashed part of the orbit path shows where the satellite is in the earth's shadow,  

DLR